BREEZE-KM R/B, 44909

Orbit data source: Space-Track

BREEZE-KM R/B, 44909 is space debris in LEO originally from a launch on Thu, 26 Dec 2019 UTC via an ROKOT launch vehicle from the Plesetsk Missile And Space Complex (PKMTR). Debris objects in space refer to the collection of defunct objects orbiting the Earth. Examples of debris include non-operational satellites, rocket bodies, and fragments generated from explosions, collisions, or faulty payload assembly.

Loading next visibility...
Identifier
44909, 2019-096E
Orbit
LEO
Last TLE update
8 hours ago
Origin
Manufacturer
SNIU/RESH
Mission
Operational Amateur Communications
Bus & Motor
YUBILYENIY, Unknown motor
Mass
~2,420 kg wet, ~50 kg dry
Launch date (UTC)
2019-12-26 (6 years ago)
Launch vehicle
ROKOT
Launch site
Plesetsk Missile And Space Complex (PKMTR)
Object type
Payload
Rocket body
Debris
Shape & HBR
Hex Cyl + 1 Rod, 4.1 m
Radar Cross Section
10.190 m², Large (>1 m²)

Expand to show TLE details & history

TLE from 8 hours ago
0 BREEZE-KM R/B
1 44909U 19096E   25186.58796398  .00000028  00000-0  72399-4 0  9992
2 44909  82.5195 209.9986 0216462 234.5962 123.4752 12.79741578258014
Epoch: 2025-07-05T14:06Z
TLE epoch observation values (Epoch: 2025-07-05T14:06:40.087Z)
Latitude
-0.00006°
Longitude
74.50771°
Altitude
1,439.932 km
Speed
7.098 km/s
True Right ascension
13h 59m 59s
True Declination
0° 00' 00"
Sunlit
Object was in daylight at epoch
Visualization orbit readout
Latitude
61.60306°
Longitude
-119.70343°
Altitude
1,423.979 km
Speed
7.122 km/s
Apparent Right ascension
23h 24m 50s
Apparent Declination
19° 01' 45"
Sunlit
Object is in daylight
Visualization observer readout
Local Sidereal Time
10:11:12
Azimuth
340.125° N
Elevation
-28.605°
Doppler factor
1
Orbital elements
Apogee altitude
1,506.87 km
Perigee altitude
1,172.742 km
Semi-major axis
7,717.943 km
Eccentricity
0.02165
Inclination
82.5195°
RAAN
209.9986°
Arg. of periapsis
234.5962°
True anomaly
Unknown
Mean anomaly
123.4752°
Eccentric anomaly
Unknown
Mean motion
3.20104 °/min
Orbital period
112.46 mins
BSTAR
0.000072399
Loading maneuver chart data...
Loading SW <> Apogee altitude chart data...
Loading historical data...
Loading historical data...
Loading historical data...
Loading historical data...
Loading historical data...
Loading historical data...
Loading historical data...

BREEZE-KM R/B Visibility forecast

Observer location: undefined°, undefined°

Span
Click to sort rows by Start time (UTC) header in descending order
Start Az.
Max El. time (UTC)
Max El. Az.
Max El.
End time (UTC)
End Az.
16 mins2025-07-06 01:27:03.354Z156.11° SSE2025-07-06 01:35:03.354Z88.053° E35.49°2025-07-06 01:43:03.354Z20.105° NNE
14 mins2025-07-06 03:22:03.354Z224.799° SW2025-07-06 03:28:03.354Z279.245° WNW32.962°2025-07-06 03:36:03.354Z352.387° N
6 mins2025-07-06 11:25:03.354Z39.921° NE2025-07-06 11:27:03.354Z55.448° ENE14.094°2025-07-06 11:31:03.354Z86.87° E
14 mins2025-07-06 13:16:03.354Z356.235° N2025-07-06 13:23:03.354Z116.747° SE44.098°2025-07-06 13:30:03.354Z168.168° S
8 mins2025-07-06 15:11:03.354Z313.828° NW2025-07-06 15:15:03.354Z280.239° WNW18.302°2025-07-06 15:19:03.354Z246.351° WSW
|